Stations météo

Publicité
Cap-de-la Heve, France (7028): Température de l'air & dewpoint: 14.09.2020 21:00:00 - 20.09.2020 21:00:00 (CEST)Cap-de-la Heve, France (7028): Température de l'air 5cm: 14.09.2020 21:00:00 - 20.09.2020 21:00:00 (CEST)Cap-de-la Heve, France (7028): Vitesse du vent & gusts: 14.09.2020 21:00:00 - 20.09.2020 21:00:00 (CEST)Cap-de-la Heve, France (7028): Direction du vent: 14.09.2020 21:00:00 - 20.09.2020 21:00:00 (CEST)Cap-de-la Heve, France (7028): reduced air pressure: 14.09.2020 21:00:00 - 20.09.2020 21:00:00 (CEST)Cap-de-la Heve, France (7028): visibility: 14.09.2020 21:00:00 - 20.09.2020 21:00:00 (CEST)Cap-de-la Heve, France (7028): Quantités de précipitations: 14.09.2020 21:00:00 - 20.09.2020 21:00:00 (CEST)
Date & Time tt [°C] td [°C] tt 5cm [°C] ff [km/h] ff [knt] fx [km/h] fx [knt] dd ppp [hPa] vv [km] rr [mm]
20.09.2020 21:00:00 20,4 14,3 20,0 25 14 37 20 NE 1015,9 - 0,0
20.09.2020 20:00:00 22,1 15,2 21,6 23 12 37 20 NE 1015,1 18 0,0
20.09.2020 19:00:00 23,8 16,3 24,4 19 10 33 18 NE 1014,7 - 0,0
20.09.2020 18:00:00 25,1 16,8 25,2 12 7 27 15 NE 1014,4 - 0,0
20.09.2020 17:00:00 25,5 16,9 27,3 15 8 29 16 NE 1014,5 - 0,0
20.09.2020 16:00:00 24,3 16,6 29,3 8 4 14 8 NNW 1014,6 - 0,0
20.09.2020 15:00:00 23,5 17,7 26,0 7 4 12 7 WNW 1015,0 - 0,0
20.09.2020 14:00:00 21,6 17,8 25,9 6 3 13 7 W 1015,1 16 0,0
20.09.2020 13:00:00 21,9 17,7 25,2 4 2 10 5 SW 1015,3 - 0,0
20.09.2020 12:00:00 22,2 17,3 23,4 7 4 20 11 NNE 1015,1 - 0,0
20.09.2020 11:00:00 20,8 16,8 21,9 5 3 14 8 S 1015,0 - 0,0
20.09.2020 10:00:00 19,4 16,2 19,5 10 5 23 12 ENE 1014,4 - 0,0
20.09.2020 09:00:00 18,4 15,6 17,1 15 8 26 14 ENE 1014,2 - 0,0
20.09.2020 08:00:00 17,2 15,7 16,7 16 9 25 13 NE 1013,8 16 0,0
20.09.2020 07:00:00 17,3 15,6 16,7 11 6 22 12 NE 1013,6 - 0,0
20.09.2020 06:00:00 18,2 15,6 17,4 9 5 27 15 NE 1013,6 - 0,0
20.09.2020 05:00:00 17,8 15,8 17,5 15 8 28 15 NE 1013,5 - 0,0
20.09.2020 04:00:00 18,0 16,0 17,7 14 8 19 11 NE 1013,6 - 0,0
20.09.2020 03:00:00 18,6 16,2 18,2 16 8 24 13 ENE 1013,5 - 0,0
20.09.2020 02:00:00 18,9 16,3 18,4 17 9 25 14 NE 1013,4 18 0,0
20.09.2020 01:00:00 18,9 16,3 18,5 12 6 32 18 NE 1013,5 - 0,0
20.09.2020 00:00:00 19,0 16,2 18,6 23 12 34 18 ENE 1013,5 - 0,0
19.09.2020 23:00:00 19,2 16,2 18,8 24 13 37 20 NE 1013,3 15 0,0
19.09.2020 22:00:00 19,5 16,5 19,1 22 12 37 20 NE 1013,1 - 0,0
19.09.2020 21:00:00 20,1 17,5 18,9 16 9 26 14 NNE 1012,8 - 0,2
19.09.2020 20:00:00 19,7 18,0 18,7 14 7 22 12 NNE 1012,6 - 0,0
19.09.2020 19:00:00 19,8 17,2 18,2 12 7 24 13 NNE 1012,5 - 1,8
19.09.2020 18:00:00 19,3 18,0 18,5 17 9 37 20 ENE 1012,6 - 6,4
19.09.2020 17:00:00 22,5 17,0 20,6 13 7 23 12 ENE 1012,2 - 0,0
19.09.2020 16:00:00 23,3 16,3 23,8 6 4 20 11 E 1012,4 - 0,0
19.09.2020 15:00:00 22,7 16,9 23,5 11 6 21 12 E 1012,7 - 0,0
19.09.2020 14:00:00 21,8 16,1 21,8 10 6 29 16 E 1012,8 18 0,0
19.09.2020 13:00:00 20,9 15,2 21,4 14 8 27 15 E 1012,6 - 0,0
19.09.2020 12:00:00 19,6 15,0 20,2 14 8 29 16 E 1012,8 - 0,0
19.09.2020 11:00:00 18,9 14,4 18,0 16 9 34 18 ESE 1012,6 - 0,0
19.09.2020 10:00:00 17,7 14,0 17,9 17 9 31 17 ENE 1012,3 - 0,0
19.09.2020 09:00:00 17,0 13,7 15,2 9 5 15 8 NE 1012,2 - 0,0
19.09.2020 08:00:00 16,8 13,5 15,2 5 3 12 7 ESE 1012,3 - 0,2
19.09.2020 07:00:00 17,1 13,4 15,3 8 5 19 10 E 1012,5 - 0,0
19.09.2020 06:00:00 17,5 13,0 17,0 12 6 21 11 ENE 1012,4 - 0,0
19.09.2020 05:00:00 17,7 13,0 17,1 9 5 32 17 NE 1012,4 20 0,0
19.09.2020 04:00:00 17,3 13,2 16,9 13 7 26 14 NE 1013,1 - 0,0
19.09.2020 03:00:00 17,7 13,4 17,2 11 6 25 14 ENE 1014,0 - 0,0
19.09.2020 02:00:00 17,7 13,6 17,2 13 7 30 16 NE 1014,4 - 0,0
19.09.2020 01:00:00 17,7 13,6 17,2 13 7 24 13 NE 1015,0 - 0,0
19.09.2020 00:00:00 18,1 13,6 17,5 13 7 30 16 NE 1015,7 - 0,0
18.09.2020 23:00:00 18,4 12,8 18,0 19 11 34 18 NE 1015,7 - 0,0
18.09.2020 22:00:00 18,9 13,3 18,4 19 11 34 18 NE 1015,8 - 0,0
18.09.2020 21:00:00 19,7 13,6 19,1 15 8 34 18 NE 1016,0 - 0,0
18.09.2020 20:00:00 20,5 13,7 20,0 19 10 32 18 NE 1015,5 20 0,0
18.09.2020 19:00:00 22,1 13,7 22,3 15 8 33 18 ENE 1015,4 - 0,0
18.09.2020 18:00:00 22,2 13,5 23,1 16 9 42 23 ENE 1015,2 - 0,0
18.09.2020 17:00:00 22,3 13,4 23,3 18 10 36 19 NE 1015,3 - 0,0
18.09.2020 16:00:00 23,9 13,1 24,6 16 9 32 17 ENE 1015,8 - 0,0
18.09.2020 15:00:00 22,8 12,7 24,7 12 7 31 17 E 1016,9 - 0,0
18.09.2020 14:00:00 22,2 12,2 25,2 18 10 35 19 E 1017,2 20 0,0
18.09.2020 13:00:00 21,3 11,9 24,0 17 9 31 17 ENE 1017,9 - 0,0
18.09.2020 12:00:00 19,9 10,6 20,5 9 5 31 17 ENE 1018,3 - 0,0
18.09.2020 11:00:00 18,3 9,1 18,1 13 7 37 20 ENE 1018,9 - 0,0
18.09.2020 10:00:00 16,1 7,8 15,1 21 11 45 24 E 1018,7 - 0,0
18.09.2020 09:00:00 14,1 6,9 13,0 27 15 44 24 ENE 1018,6 - 0,0
18.09.2020 08:00:00 13,3 6,9 12,5 26 14 45 24 ENE 1018,9 20 0,0
18.09.2020 07:00:00 12,9 6,5 12,6 28 15 44 24 ENE 1018,7 - 0,0
18.09.2020 06:00:00 13,0 6,3 12,7 32 17 48 26 ENE 1019,1 - 0,0
18.09.2020 05:00:00 13,1 6,4 12,8 33 18 48 26 ENE 1019,5 - 0,0
18.09.2020 04:00:00 13,3 6,4 12,9 32 18 48 26 ENE 1019,9 - 0,0
18.09.2020 03:00:00 13,8 6,4 13,5 34 18 47 26 ENE 1020,3 - 0,0
18.09.2020 02:00:00 14,4 7,0 13,7 27 15 39 21 NE 1021,2 15 0,0
18.09.2020 01:00:00 14,8 8,1 14,2 21 11 45 24 NE 1021,6 - 0,0
18.09.2020 00:00:00 15,6 7,6 15,0 22 12 46 25 ENE 1021,8 - 0,0
17.09.2020 23:00:00 16,9 5,8 16,3 26 14 52 28 ENE 1022,2 - 0,0
17.09.2020 22:00:00 17,2 7,3 16,7 34 18 53 28 ENE 1022,4 - 0,0
17.09.2020 21:00:00 17,4 8,3 16,8 30 16 49 26 ENE 1022,2 - 0,0
17.09.2020 20:00:00 18,1 8,4 17,6 25 13 42 23 NE 1021,9 - 0,0
17.09.2020 19:00:00 19,2 8,8 20,0 21 12 43 23 NE 1022,1 - 0,0
17.09.2020 18:00:00 20,0 9,5 21,9 23 12 44 24 NE 1022,3 - 0,0
17.09.2020 17:00:00 20,8 10,0 23,8 20 11 43 23 NE 1022,7 - 0,0
17.09.2020 16:00:00 21,2 10,9 24,2 19 11 41 22 NE 1023,1 - 0,0
17.09.2020 15:00:00 22,5 8,2 25,0 16 9 36 20 ENE 1023,7 - 0,0
17.09.2020 14:00:00 22,1 6,7 24,1 17 9 32 17 ENE 1024,1 - 0,0
17.09.2020 13:00:00 21,3 10,1 23,5 14 8 31 17 ENE 1024,7 - 0,0
17.09.2020 12:00:00 19,8 10,2 19,7 16 9 35 19 ENE 1025,1 - 0,0
17.09.2020 11:00:00 18,0 11,1 19,0 19 10 35 19 NE 1025,4 20 0,0
17.09.2020 10:00:00 16,7 13,0 16,9 14 8 46 25 ENE 1025,1 - 0,0
17.09.2020 09:00:00 15,7 13,4 15,3 15 8 34 19 ENE 1024,6 - 0,0
17.09.2020 08:00:00 15,6 13,4 15,2 14 8 32 18 ENE 1024,3 10 0,0
17.09.2020 07:00:00 16,1 13,9 15,7 17 9 37 20 NE 1023,7 - 0,0
17.09.2020 06:00:00 16,5 14,3 16,2 18 10 45 24 NE 1023,8 - 0,0
17.09.2020 05:00:00 16,9 14,9 16,7 25 14 50 27 NE 1023,6 - 0,0
17.09.2020 04:00:00 17,3 15,3 17,0 23 13 51 28 NE 1023,8 - 0,0
17.09.2020 03:00:00 17,5 15,5 17,1 20 11 40 21 NE 1024,0 - 0,0
17.09.2020 02:00:00 17,6 15,6 17,2 15 8 38 21 NE 1024,1 15 0,0
17.09.2020 01:00:00 18,0 15,8 17,7 23 13 50 27 NE 1023,7 - 0,0
17.09.2020 00:00:00 17,9 15,9 17,7 23 13 54 29 NE 1023,4 - 0,0
16.09.2020 23:00:00 18,1 15,7 17,9 24 13 47 26 NE 1022,9 15 0,0
16.09.2020 22:00:00 18,4 15,1 18,1 22 12 44 24 NE 1022,6 - 0,0
16.09.2020 21:00:00 18,7 15,0 18,4 22 12 41 22 NE 1021,9 - 0,0
16.09.2020 20:00:00 19,9 15,5 19,6 15 8 33 18 NE 1021,6 - 0,0
16.09.2020 19:00:00 21,5 16,7 22,6 11 6 36 20 NE 1021,0 - 0,0
16.09.2020 18:00:00 21,7 17,1 23,9 23 12 42 23 NNE 1020,7 - 0,0
16.09.2020 17:00:00 22,2 16,9 24,8 21 11 34 19 NNE 1020,9 10 0,0
16.09.2020 16:00:00 21,9 17,3 25,3 15 8 31 17 NNE 1021,1 - 0,0
16.09.2020 15:00:00 24,0 17,5 26,3 13 7 24 13 N 1021,3 - 0,0
16.09.2020 14:00:00 22,8 18,3 26,4 14 7 23 12 N 1021,4 10 0,0
16.09.2020 13:00:00 22,9 17,1 23,4 10 5 19 10 N 1021,5 - 0,0
16.09.2020 12:00:00 20,9 17,7 21,2 9 5 23 12 NNE 1021,7 - 0,0
16.09.2020 11:00:00 19,2 17,3 20,9 14 7 24 13 N 1021,7 10 0,0
16.09.2020 10:00:00 19,2 17,7 18,9 12 6 27 14 NNW 1021,3 - 0,0
16.09.2020 09:00:00 18,5 17,3 18,2 16 9 23 12 NNW 1021,1 - 0,0
16.09.2020 08:00:00 18,5 17,0 18,2 9 5 23 13 NW 1021,0 - 0,0
16.09.2020 07:00:00 18,5 17,3 18,0 12 6 16 9 WNW 1020,3 - 0,0
16.09.2020 06:00:00 18,5 17,3 17,8 8 5 12 7 WNW 1020,0 - 0,0
16.09.2020 05:00:00 18,4 17,1 17,4 7 4 11 6 NW 1020,0 - 0,0
16.09.2020 04:00:00 18,3 17,1 16,9 7 4 14 7 NNW 1019,9 - 0,0
16.09.2020 03:00:00 18,4 16,9 17,1 5 3 16 9 NNW 1020,2 - 0,0
16.09.2020 02:00:00 18,6 16,6 17,9 10 5 21 11 N 1020,1 - 0,0
16.09.2020 01:00:00 18,8 16,6 17,9 9 5 18 10 NNW 1020,6 - 0,0
16.09.2020 00:00:00 18,9 16,9 18,1 12 6 21 12 NW 1020,4 - 0,0
15.09.2020 23:00:00 19,2 16,2 18,1 12 6 24 13 NW 1020,2 - 0,0
15.09.2020 22:00:00 19,1 15,8 18,6 16 8 25 13 NNW 1019,8 - 0,0
15.09.2020 21:00:00 19,3 16,1 18,2 - - 19 11 - 1019,4 - 0,0
15.09.2020 20:00:00 19,3 17,3 19,0 12 6 19 10 NW 1018,9 20 0,0
15.09.2020 19:00:00 21,2 17,4 24,3 10 5 19 10 NW 1018,5 - 0,0
15.09.2020 18:00:00 21,4 17,6 24,8 2 1 14 8 WSW 1018,9 - 0,0
15.09.2020 17:00:00 20,9 17,3 24,0 8 4 16 9 W 1019,1 20 0,0
15.09.2020 16:00:00 21,2 17,4 29,4 10 5 22 12 NNW 1019,1 - 0,0
15.09.2020 15:00:00 21,4 16,8 28,6 14 7 27 15 NNW 1019,1 - 0,0
15.09.2020 14:00:00 21,3 17,7 29,8 15 8 24 13 NNW 1019,1 - 0,0
15.09.2020 13:00:00 22,0 16,3 26,7 15 8 26 14 NW 1019,2 - 0,0
15.09.2020 12:00:00 23,9 14,9 25,8 6 3 15 8 WSW 1018,8 - 0,0
15.09.2020 11:00:00 24,3 14,7 24,0 10 5 19 10 S 1018,5 - 0,0
15.09.2020 10:00:00 23,3 14,0 24,9 9 5 17 9 SE 1017,9 - 0,0
15.09.2020 09:00:00 22,6 13,6 21,4 7 4 11 6 SSE 1018,0 - 0,0
15.09.2020 08:00:00 22,5 13,3 21,3 8 4 11 6 S 1017,7 - 0,0
15.09.2020 07:00:00 22,7 13,2 21,0 8 4 13 7 S 1017,2 - 0,0
15.09.2020 06:00:00 23,0 12,9 21,1 8 4 14 8 SSE 1017,1 - 0,0
15.09.2020 05:00:00 23,3 12,3 21,9 9 5 21 11 SSE 1017,2 - 0,0
15.09.2020 04:00:00 24,1 12,4 20,6 11 6 16 9 SSE 1017,1 - 0,0
15.09.2020 03:00:00 22,9 12,8 21,3 8 4 17 9 E 1017,1 - 0,0
15.09.2020 02:00:00 23,6 12,9 22,3 11 6 31 17 E 1017,1 - 0,0
15.09.2020 01:00:00 26,2 12,6 24,4 22 12 38 21 ESE 1017,1 - 0,0
15.09.2020 00:00:00 25,3 13,5 24,3 21 11 36 19 E 1017,0 - 0,0
14.09.2020 23:00:00 25,9 13,4 25,1 20 11 33 18 ENE 1017,3 - 0,0
14.09.2020 22:00:00 26,4 13,2 25,7 23 12 34 19 ENE 1017,5 - 0,0
14.09.2020 21:00:00 27,0 13,4 26,2 19 10 29 15 ENE 1017,5 - 0,0

tt = Température de l'air
td = dewpoint
tt 5cm = Température de l'air 5cm
ff = Vitesse du vent
fx = gusts
dd = Direction du vent
ppp = reduced air pressure
vv = visibility
rr = Quantités de précipitations

stations d'obs. à proximité